Flag for Germany Weather past 2 weeks in Freital, Saxony, Germany

Now
74 °F

Passing clouds.


Feels Like: 77 °F
Forecast: 55 / 69 °F
Wind: 7 mph from Southeast

Location: Dresden-Klotzsche

Current Time: Sep 17, 2014 at 4:53:11 PM

Latest Report: Sep 17, 2014 at 4:00 PM


Visibility: 25 mi

Pressure: 29.97 "Hg

Humidity: 47%

Dew point: 52 °F

Location of FreitalLocation

Historic Weather in Freital — Graph

°F

Freital temperature yesterday

Maximum temperature yesterday: 76 °F (at 3:00 PM)
Minimum temperature yesterday: 61 °F (at 3:00 AM)
Average temperature yesterday: 67 °F

Past Weeks' High & Low Weather Summary

 TemperatureHumidityPressure
High80 °F (Sep 6, 3:00 PM)100% (Sep 15, 8:00 AM)30.25 "Hg (Sep 15, 8:00 AM)
Low52 °F (Sep 4, 4:00 AM)45% (Sep 17, 3:00 PM)29.86 "Hg (Sep 6, 4:00 PM)
Average62 °F85%30.04 "Hg
* Reported Sep 2 3:00 PM — Sep 17 3:00 PM, Freital, Weather by CustomWeather, © 2014

Note: Actual official high and low records may vary slightly from our data, if they occured in-between our weather recording intervals... More about our weather records

Advertising

Freital weather history for previous 24 hours

 ConditionsComfort  
Time TempWeatherWind HumidityBarometerVisibility
3:00 PM
Sep 17
73 °FPassing clouds.7 mph45%29.98 "Hg22 mi
2:00 PM73 °FPassing clouds.6 mph51%30.00 "Hg25 mi
1:00 PM71 °FPassing clouds.7 mph55%30.00 "Hg25 mi
12:00 PM69 °FSunny.8 mph59%30.02 "Hg22 mi
10:00 AM65 °FSunny.7 mph73%30.03 "Hg11 mi
9:00 AM62 °FPassing clouds.6 mph80%30.04 "Hg9 mi
8:00 AM59 °FPassing clouds.2 mph86%30.04 "Hg7 mi
7:00 AM59 °FPassing clouds.6 mph86%30.03 "Hg6 mi
6:00 AM59 °FClear.7 mph85%30.03 "Hg12 mi
4:00 AM59 °FClear.5 mph86%30.05 "Hg16 mi
3:00 AM59 °FClear.5 mph85%30.06 "Hg16 mi
2:00 AM59 °FClear.5 mph84%30.06 "Hg16 mi
1:00 AM59 °FClear.3 mph84%30.06 "Hg16 mi
12:00 AM60 °FPassing clouds.3 mph79%30.06 "Hg16 mi
11:00 PM
Sep 16
62 °FOvercast.3 mph75%30.06 "Hg14 mi
10:00 PM63 °FOvercast.3 mph75%30.06 "Hg12 mi
9:00 PM65 °FLight rain. Overcast.6 mph75%30.06 "Hg11 mi
8:00 PM68 °FOvercast.6 mph74%30.04 "Hg11 mi
7:00 PM70 °FPartly sunny.5 mph76%30.03 "Hg9 mi
6:00 PM70 °FThunderstorms. Partly sunny.5 mph80%30.03 "Hg10 mi
5:00 PM69 °FThundershowers. Low clouds.6 mph77%30.04 "Hg5 mi
4:00 PM72 °FPartly sunny.5 mph71%30.04 "Hg12 mi
Weather by CustomWeather, © 2014

See weather overviewHow to use our weather pages